User: anonymous   Login
Location: Alexandria
(38.8050°N, 77.0470°W)
Time: 16:47:07
(UTC-05:00)
Language:

N. Korean satellite - Orbit

View from above orbital plane
View from above orbital plane
View from above satellite
View from above satellite

Ground track
Ground track

The orbit data is extracted from the following two-line orbital elements,

1 39026U 12072A   18023.09192390  .00001262  00000-0  50225-4 0  9998
2 39026  97.2148  38.4072 0041298 116.8159 243.7313 15.26299462283521
Epoch (UTC): 23 January 2018 02:12:22
Eccentricity: 0.0041298
inclination: 97.2148°
perigee height: 458 km
apogee height: 515 km
right ascension of ascending node: 38.4072°
argument of perigee: 116.8159°
revolutions per day: 15.26299462
mean anomaly at epoch: 243.7313°
orbit number at epoch: 28352

The dashed part of the orbit path shows where the satellite is in the earth's shadow,  

DLR